Wind_Speed
13 12 12 13 14 15 15 16 17 16 16 15 15 15 15 14 14 14 14 14 14 14 14 14 14 14 14 14 14 14 14 15 14 15 14 14 15 16 16 15 15 15 15
14 14 15 15 15 15 16 16 18 16 16 17 17 16 16 16 16 15 15 16 16 15 15 14 14 14 14 14 15 14 14 14 15 15 15 15 16 16 17 16 16 16 15
14 15 16 16 16 17 17 17 18 17 17 17 17 17 17 17 17 17 17 17 16 16 15 16 15 15 15 15 15 15 15 16 16 16 16 16 17 17 18 17 17 16 16
16 16 17 16 16 16 18 19 19 18 18 17 18 18 18 18 18 18 18 18 17 16 17 17 17 16 16 15 16 16 16 17 18 18 18 18 19 19 18 18 18 17 17
16 16 16 16 16 16 18 19 19 19 19 18 19 19 19 19 19 19 19 19 19 18 18 19 19 18 17 18 18 17 17 18 18 19 19 19 19 19 19 18 18 18 18
17 17 17 17 17 18 18 18 19 20 20 19 20 20 20 20 20 20 20 20 20 20 20 20 20 20 19 19 18 18 19 19 19 19 20 20 20 20 19 19 19 19 19
18 18 18 18 18 19 20 20 21 21 21 21 21 21 21 21 21 21 21 21 21 21 21 21 20 20 20 21 21 21 20 20 20 20 21 21 20 20 19 19 19 19 19
20 20 19 20 20 20 21 22 22 23 23 23 24 24 23 22 22 22 22 22 22 22 22 21 21 21 22 22 23 22 22 22 21 22 22 21 20 20 20 19 20 20 20
21 20 20 20 21 22 23 24 25 25 25 25 25 24 24 23 23 23 23 22 22 22 22 23 22 23 23 23 23 23 24 23 23 23 23 22 21 21 21 21 20 21 21
20 20 20 21 23 23 24 25 26 26 27 26 26 26 24 24 24 24 23 22 22 23 23 23 24 24 24 24 24 24 24 24 24 24 23 23 22 21 21 21 21 21 21
20 20 22 23 24 24 24 25 26 28 28 27 27 27 26 25 24 24 23 23 23 23 23 24 24 25 25 25 25 25 26 25 25 25 24 23 23 22 21 22 22 21 20
22 23 24 24 24 25 25 26 28 27 27 27 27 27 26 25 25 25 24 24 24 24 24 25 25 25 25 26 25 25 26 25 25 25 25 24 24 23 22 23 22 22 21
24 25 25 25 25 26 26 26 26 26 26 26 26 26 26 26 25 25 25 25 25 25 25 26 26 26 26 26 25 26 26 26 26 26 26 26 26 25 24 24 24 23 22
25 24 24 25 25 25 26 26 26 26 26 25 25 25 25 25 25 25 25 25 26 26 26 26 26 26 26 26 27 27 27 27 27 27 27 27 27 27 26 26 25 25 24
24 24 25 25 25 25 25 25 25 25 25 25 25 25 25 25 26 25 25 25 26 26 26 26 27 27 27 27 28 28 27 27 27 28 28 27 28 27 27 26 26 26 25
24 25 25 25 24 25 24 24 24 24 24 25 25 26 26 26 26 26 26 26 26 26 26 26 26 27 27 27 27 27 27 27 27 27 26 25 25 25 25 26 26 27 26
24 25 25 24 24 24 24 24 25 25 25 25 26 27 26 26 26 26 26 26 26 26 26 26 26 26 26 26 26 26 26 26 25 25 25 26 25 25 25 25 26 27 27
23 24 24 24 25 25 25 25 25 25 25 26 27 27 27 26 26 27 27 27 27 27 27 27 27 27 27 26 25 25 25 25 25 25 25 24 25 24 25 25 25 25 26
24 24 25 25 26 26 26 26 26 26 26 26 26 27 27 27 27 27 27 28 27 27 27 27 27 27 26 26 26 25 25 25 25 24 24 24 24 24 25 25 25 25 26
25 25 25 26 26 26 27 27 27 27 27 27 27 27 27 28 27 27 27 27 27 27 27 27 26 27 26 26 26 26 25 25 24 24 24 24 24 24 25 25 25 25 26
26 26 26 26 27 27 27 27 28 28 28 28 27 27 28 28 27 27 27 26 26 26 26 26 26 26 25 25 25 25 25 25 24 24 25 25 26 25 26 26 25 25 26
26 26 26 26 27 28 27 28 28 28 28 28 28 27 27 28 27 27 26 25 25 26 26 25 24 24 24 24 24 24 25 25 24 24 24 25 26 26 26 26 26 25 25
26 26 27 27 28 28 28 28 28 28 28 28 28 28 28 28 27 27 26 26 25 25 25 24 24 23 23 23 23 23 23 23 24 24 24 25 26 27 27 26 26 26 25
27 27 27 27 27 27 27 27 27 27 27 27 28 28 28 27 27 27 27 26 25 25 25 24 24 23 23 23 23 22 22 23 23 23 23 24 26 26 26 27 27 26 25
28 27 27 27 27 27 27 27 27 27 27 27 28 28 28 27 27 27 27 26 26 25 25 24 24 24 24 24 23 23 23 23 23 23 23 23 23 24 25 26 27 27 27
27 28 28 28 28 28 28 28 28 28 28 28 28 28 28 28 28 27 27 27 26 25 25 24 24 24 24 24 24 24 24 23 23 23 23 23 23 23 24 25 25 26 26
Wind_Direction
288 291 296 295 299 305 307 309 308 306 304 303 305 305 305 306 308 309 307 304 296 293 290 290 290 288 284 282 282 283 282 279 276 276 276 274 268 265 267 270 272 272 270
293 294 297 298 300 303 305 306 311 306 305 303 302 304 306 306 304 305 305 301 297 295 294 291 291 287 284 282 282 282 282 280 277 277 279 278 272 268 269 270 271 271 270
290 291 292 293 297 303 304 305 306 307 303 301 302 303 307 303 302 302 302 303 301 300 297 291 289 289 287 283 280 278 280 281 280 280 279 277 273 273 273 271 271 270 270
284 287 291 288 293 299 304 306 306 306 300 300 302 303 304 304 304 303 301 300 299 296 293 291 289 286 288 286 283 280 278 280 280 279 277 276 275 274 272 270 268 267 268
283 286 290 289 291 297 301 306 308 307 302 300 300 301 301 302 302 301 299 298 297 296 293 290 288 285 286 285 284 280 280 280 279 277 277 277 276 277 273 269 268 266 265
282 283 285 287 287 293 298 303 305 303 299 297 297 297 299 299 298 298 297 295 295 293 291 288 285 283 282 281 280 280 278 279 278 277 276 276 276 276 277 273 271 267 265
282 284 287 284 286 291 296 302 302 302 300 296 296 297 297 296 296 295 295 295 294 295 291 285 284 283 280 280 280 279 280 278 277 277 275 275 275 276 277 273 270 267 265
280 284 287 290 290 293 297 298 299 300 301 299 296 294 296 297 297 296 294 293 293 292 290 286 284 282 280 280 281 281 279 277 276 275 274 273 274 275 275 273 270 268 267
280 283 288 290 292 295 297 297 297 298 299 298 295 293 295 296 296 295 294 293 293 291 289 285 283 282 282 280 279 279 279 277 276 276 273 272 274 275 273 273 270 270 269
284 286 289 291 293 295 297 296 295 295 297 296 293 292 292 293 293 293 293 292 292 291 288 284 283 282 281 279 280 279 278 277 274 274 272 271 273 274 273 271 269 268 268
286 287 290 291 294 295 294 295 297 296 296 295 293 292 292 292 292 292 291 290 290 289 288 284 282 281 280 279 278 278 276 275 273 270 270 271 271 269 270 270 268 266 264
286 287 289 290 291 292 293 295 296 297 296 295 294 292 292 292 292 291 291 290 289 289 287 285 282 281 280 279 277 276 275 274 273 269 268 268 267 266 267 269 266 265 264
285 286 286 286 286 289 292 293 294 295 297 297 295 292 291 292 291 291 291 291 291 290 287 284 283 282 281 280 277 276 275 275 273 269 266 265 264 265 265 266 265 264 264
286 285 285 286 288 290 291 292 293 294 296 296 295 293 292 292 293 292 292 292 291 290 287 285 283 282 281 279 278 276 275 274 272 269 267 264 263 262 263 263 264 264 264
283 285 287 288 289 290 293 295 295 296 296 296 295 293 294 292 292 295 294 293 293 291 288 286 284 283 282 280 278 276 274 273 272 270 267 265 261 261 261 262 263 264 264
283 286 288 289 289 290 294 296 297 297 297 297 296 296 296 295 294 294 294 294 294 293 290 288 287 285 282 280 279 276 273 271 270 271 268 264 261 260 259 262 262 261 262
284 286 287 288 288 291 294 295 296 296 296 296 296 296 295 294 292 291 293 293 292 292 291 290 289 286 284 283 280 279 275 271 270 270 268 264 263 264 263 263 263 263 262
285 286 286 286 287 289 292 294 295 295 296 297 298 298 297 295 293 292 293 294 293 292 291 289 288 287 285 284 284 281 279 274 271 268 266 265 263 264 265 265 265 264 262
283 286 286 285 287 289 291 293 294 295 296 298 299 299 298 298 296 295 294 293 293 291 290 289 289 288 286 285 285 283 281 277 273 269 268 267 265 265 265 265 266 266 263
284 285 286 286 287 289 291 291 292 294 295 297 297 298 298 297 295 295 295 294 292 290 290 290 289 288 287 285 284 284 279 276 274 270 267 266 264 263 262 263 263 264 264
283 285 286 287 288 290 290 290 291 293 294 295 297 298 299 297 296 298 296 292 293 292 292 290 290 288 287 286 284 282 278 276 274 271 267 264 262 261 262 263 264 264 264
284 286 286 287 289 290 291 290 291 292 294 294 295 297 298 299 298 297 297 296 295 295 293 291 290 289 289 287 284 282 280 278 275 271 267 264 264 263 263 264 264 263 263
283 285 286 288 290 291 291 291 291 292 292 293 295 297 299 300 300 299 298 298 297 295 295 292 291 290 289 289 288 285 283 281 277 272 268 266 266 265 264 263 262 262 261
284 285 287 289 291 291 290 290 291 291 292 293 295 297 298 298 299 299 298 298 297 295 293 293 290 288 288 289 289 287 284 281 277 274 272 269 268 266 263 262 261 261 262
286 288 290 290 290 290 291 291 291 291 292 293 294 296 296 296 297 297 296 296 295 294 292 292 290 286 285 286 287 287 285 281 277 275 273 272 270 267 264 262 261 261 261
286 288 289 290 290 290 290 290 291 292 293 292 293 294 294 295 295 295 295 293 292 291 291 290 290 287 284 283 283 283 283 281 280 278 275 273 271 267 264 264 263 260 259
Height
5881 5880 5880 5879 5877 5876 5874 5873 5872 5870 5868 5867 5865 5864 5862 5860 5859 5858 5856 5855 5854 5853 5853 5852 5852 5852 5851 5851 5850 5850 5849 5849 5849 5849 5849 5849 5849 5848 5849 5849 5849 5848 5848
5878 5878 5877 5875 5874 5872 5871 5870 5868 5866 5865 5864 5862 5861 5859 5858 5857 5855 5853 5852 5851 5850 5849 5849 5849 5848 5848 5848 5847 5847 5846 5846 5846 5845 5845 5845 5846 5845 5845 5844 5844 5844 5845
5875 5874 5873 5872 5871 5869 5868 5866 5864 5863 5861 5859 5858 5857 5856 5854 5853 5852 5851 5849 5848 5847 5846 5846 5845 5845 5844 5844 5843 5843 5842 5842 5842 5842 5842 5841 5841 5841 5841 5841 5840 5840 5840
5871 5870 5869 5868 5867 5865 5864 5862 5860 5859 5857 5856 5855 5853 5852 5851 5850 5848 5847 5845 5844 5843 5843 5842 5841 5841 5840 5840 5839 5839 5838 5838 5838 5837 5837 5837 5837 5837 5836 5836 5836 5836 5836
5867 5866 5865 5864 5863 5861 5860 5858 5856 5855 5853 5852 5851 5850 5848 5847 5846 5844 5843 5841 5840 5839 5838 5838 5837 5836 5836 5835 5835 5834 5834 5834 5833 5833 5832 5832 5832 5832 5832 5832 5832 5832 5832
5863 5862 5861 5860 5859 5857 5856 5854 5852 5851 5849 5848 5847 5846 5844 5843 5841 5840 5838 5837 5836 5834 5833 5832 5832 5831 5831 5830 5830 5829 5829 5829 5829 5828 5828 5827 5827 5827 5827 5827 5827 5827 5827
5858 5857 5856 5855 5854 5853 5851 5850 5848 5846 5845 5843 5842 5841 5839 5838 5836 5835 5833 5832 5831 5830 5828 5827 5827 5826 5825 5825 5825 5824 5824 5823 5823 5823 5823 5822 5822 5822 5822 5822 5822 5822 5822
5854 5853 5853 5852 5850 5848 5847 5845 5843 5842 5840 5839 5837 5835 5833 5832 5831 5830 5828 5827 5825 5824 5823 5822 5821 5820 5820 5819 5819 5818 5818 5818 5817 5817 5817 5817 5817 5817 5817 5817 5816 5816 5816
5849 5849 5848 5847 5845 5844 5842 5840 5839 5836 5835 5833 5831 5829 5827 5826 5825 5823 5822 5820 5819 5818 5817 5816 5815 5815 5814 5813 5812 5812 5812 5811 5811 5811 5811 5811 5811 5811 5811 5811 5811 5811 5811
5844 5843 5843 5842 5840 5839 5837 5835 5833 5831 5829 5827 5825 5823 5821 5820 5819 5817 5815 5814 5813 5811 5810 5810 5809 5808 5807 5807 5806 5805 5805 5805 5805 5804 5804 5804 5805 5805 5805 5805 5805 5805 5805
5839 5838 5838 5836 5835 5833 5832 5830 5828 5826 5823 5821 5819 5816 5814 5814 5812 5810 5809 5807 5806 5805 5804 5803 5802 5801 5800 5800 5799 5798 5798 5798 5798 5798 5798 5798 5798 5798 5799 5799 5799 5799 5799
5834 5833 5832 5831 5829 5828 5826 5824 5821 5819 5817 5814 5812 5810 5808 5807 5806 5804 5802 5801 5799 5798 5797 5796 5795 5794 5793 5792 5792 5791 5791 5790 5790 5790 5791 5791 5791 5792 5792 5792 5793 5793 5793
5829 5827 5826 5825 5823 5822 5820 5818 5815 5813 5811 5809 5806 5804 5802 5801 5799 5797 5795 5794 5792 5791 5790 5788 5787 5787 5786 5785 5784 5784 5783 5783 5783 5783 5783 5784 5784 5784 5785 5785 5786 5786 5787
5823 5822 5820 5819 5817 5816 5814 5812 5810 5807 5805 5803 5800 5798 5796 5794 5792 5790 5788 5787 5785 5783 5782 5781 5780 5779 5778 5777 5776 5776 5776 5775 5775 5775 5775 5775 5776 5777 5777 5778 5779 5779 5780
5817 5816 5814 5812 5811 5809 5807 5805 5803 5801 5799 5796 5794 5792 5790 5788 5785 5783 5781 5780 5778 5776 5775 5774 5772 5771 5770 5769 5768 5767 5767 5767 5767 5767 5767 5767 5767 5769 5770 5770 5771 5772 5773
5811 5809 5808 5806 5805 5803 5801 5799 5797 5795 5793 5791 5788 5786 5783 5781 5779 5777 5775 5773 5771 5769 5768 5766 5765 5763 5762 5761 5760 5759 5758 5759 5759 5759 5759 5759 5759 5761 5762 5763 5764 5765 5766
5804 5803 5801 5800 5799 5797 5795 5793 5791 5789 5787 5784 5782 5779 5777 5775 5773 5770 5768 5766 5764 5762 5760 5759 5757 5756 5754 5753 5752 5751 5750 5751 5751 5751 5752 5752 5753 5754 5755 5756 5756 5757 5758
5798 5796 5795 5794 5793 5791 5789 5787 5785 5783 5780 5778 5775 5772 5770 5768 5766 5764 5761 5759 5757 5755 5753 5751 5749 5748 5747 5745 5744 5744 5743 5743 5743 5744 5744 5745 5746 5747 5748 5748 5749 5749 5750
5791 5790 5789 5788 5786 5784 5782 5780 5778 5776 5774 5771 5769 5766 5763 5761 5759 5756 5754 5752 5749 5748 5746 5744 5742 5740 5739 5738 5737 5736 5736 5736 5736 5736 5737 5738 5739 5740 5741 5741 5742 5742 5743
5785 5783 5782 5781 5779 5777 5775 5773 5771 5769 5767 5764 5762 5759 5756 5753 5751 5749 5746 5744 5742 5740 5738 5737 5735 5733 5732 5730 5729 5729 5729 5728 5728 5729 5729 5730 5731 5732 5733 5734 5734 5734 5735
5778 5776 5775 5774 5772 5770 5768 5767 5765 5762 5760 5757 5755 5752 5748 5746 5744 5741 5739 5737 5735 5733 5731 5729 5728 5726 5724 5723 5721 5721 5721 5721 5721 5721 5721 5722 5723 5724 5724 5725 5726 5726 5727
5770 5769 5768 5766 5765 5763 5761 5759 5757 5755 5752 5750 5747 5745 5742 5739 5737 5734 5732 5730 5728 5726 5724 5722 5720 5719 5717 5716 5714 5713 5713 5712 5712 5712 5713 5713 5714 5715 5716 5717 5718 5718 5719
5763 5762 5760 5759 5757 5755 5754 5752 5750 5747 5745 5742 5740 5737 5735 5732 5729 5727 5725 5723 5720 5718 5716 5715 5713 5712 5710 5709 5707 5706 5705 5705 5704 5704 5704 5705 5706 5707 5708 5708 5709 5710 5711
5756 5754 5753 5751 5750 5748 5746 5744 5742 5740 5737 5735 5732 5730 5727 5725 5722 5720 5718 5715 5713 5711 5709 5708 5706 5705 5703 5702 5700 5699 5698 5697 5697 5697 5697 5697 5697 5698 5699 5700 5701 5702 5703
5748 5746 5745 5743 5742 5740 5738 5736 5734 5732 5730 5727 5725 5723 5720 5718 5715 5713 5710 5708 5706 5704 5702 5701 5699 5697 5696 5695 5693 5692 5691 5691 5690 5689 5689 5689 5689 5690 5691 5692 5693 5694 5695
5740 5739 5737 5735 5734 5732 5730 5728 5726 5724 5722 5720 5717 5715 5713 5710 5707 5705 5702 5700 5698 5697 5695 5693 5692 5690 5689 5688 5686 5685 5684 5683 5683 5682 5682 5682 5682 5683 5683 5684 5685 5686 5687